Starlink 35903

operational
NORAD ID: 67168 Int'l Des: 2025-303 Owner: SPXS Country: US Constellation: starlink
LEOCIRCULAR

About Starlink 35903

Description loading...

Live Position

Loading 3D Globe...

Upcoming Passes

Altitude History

Altitude vs Time

uPlot chart will show altitude changes over time

Two-Line Element Set

1 67168C 25303F 25352.76576389 .00672180 00000+0 99483-3 0 3521
2 67168 43.0046 61.7956 0007383 288.1534 250.3021 16.03207948 17
Epoch: Dec 18, 2025 • Age: 54 hours

Current Status

Altitude 265.9 km
Velocity 7.75 km/s
Sub-Earth Point 41.71°N, 52.05°W
Launch Date Dec 17, 2025
Age 2 days
Type internet

Technical Details

Classification Payload
Mass 575.00 kg
Dry Mass 530.00 kg
Total Mass 575.00 kg
Length 0.30 m
Diameter 4.10 m
Span 29.00 m
Shape Box + pan
Manufacturer SPXS
Bus Type Starlink V2MO
Phase Status In Orbit
Owner/State SPXS/US

Large Constellations

Loading constellations...